Location: Clermont
(50.2608°N, 4.3172°E)
Time: 21:20:58
(UTC+00:00)

Meteor 1-23 Rocket - Pass Details

Date: 13 August 2020
Orbit: 836 x 889 km, 81.3° (Epoch: 22 September)

Event Time Altitude Azimuth Distance (km) Brightness Sun altitude
Rises 22:03:51 0° 348° (NNW) 3,511 8.8 -21.5°
Reaches altitude 10° 22:06:19 10° 349° (N) 2,567 7.8 -21.7°
Maximum altitude 22:12:12 81° 77° (ENE) 903 4.2 -22.1°
Enters shadow 22:13:56 48° 157° (SSE) 1,149 4.4 -22.3°
